Wisconsin Dells, Wisconsin, United States (53965)
Lat: 43.63N, Lon: 89.77W
Wx Zone: WIZ057
Local Info
Past Weather Observations for Wednesday, July 23, 2014

NOTE: This archive is for the closest National Weather Service station to Wisconsin Dells. Information may differ from the station used for current weather conditions.

Click here for Long-term Archive

Time Weather Temperature Dewpoint Humidity Pressure Winds Precip Visibility
23:35
Partly Cloudy
61°F / 16°C 54°F / 12°C 77% 30.18 in
(1022 mb)
SE 5.8 mph
(SE 9 kph)
- 10SM
23:15
Partly Cloudy
61°F / 16°C 55°F / 13°C 83% 30.18 in
(1022 mb)
SSE 6.9 mph
(SSE 11 kph)
- 10SM
22:55
Partly Cloudy
61°F / 16°C 55°F / 13°C 83% 30.18 in
(1022 mb)
Calm - 10SM
22:35
Clear
61°F / 16°C 54°F / 12°C 77% 30.18 in
(1022 mb)
Calm - 10SM
22:15
Partly Cloudy
63°F / 17°C 54°F / 12°C 73% 30.15 in
(1021 mb)
SE 3.5 mph
(SE 6 kph)
- 10SM
21:55
Partly Cloudy
64°F / 18°C 54°F / 12°C 68% 30.15 in
(1021 mb)
ESE 4.6 mph
(ESE 7 kph)
- 10SM
21:35
Partly Cloudy
64°F / 18°C 54°F / 12°C 68% 30.15 in
(1021 mb)
ESE 3.5 mph
(ESE 6 kph)
- 10SM
21:15
Mostly Cloudy
63°F / 17°C 57°F / 14°C 83% 30.15 in
(1021 mb)
Calm - 10SM
20:55
Mostly Cloudy
64°F / 18°C 57°F / 14°C 78% 30.15 in
(1021 mb)
Calm - 10SM
20:35
Mostly Cloudy
64°F / 18°C 57°F / 14°C 78% 30.15 in
(1021 mb)
Calm - 10SM
20:15
Partly Cloudy
64°F / 18°C 57°F / 14°C 78% 30.15 in
(1021 mb)
Calm - 10SM
19:55
Partly Cloudy
66°F / 19°C 57°F / 14°C 73% 30.15 in
(1021 mb)
Calm - 10SM
19:35
Mostly Cloudy
68°F / 20°C 57°F / 14°C 69% 30.15 in
(1021 mb)
Calm - 10SM
18:55
Mostly Cloudy
72°F / 22°C 55°F / 13°C 57% 30.15 in
(1021 mb)
Calm - 10SM
18:35
Clear
73°F / 23°C 54°F / 12°C 50% 30.15 in
(1021 mb)
Calm - 10SM
18:15
Clear
73°F / 23°C 54°F / 12°C 50% 30.15 in
(1021 mb)
Calm - 10SM
17:55
Clear
73°F / 23°C 52°F / 11°C 47% 30.15 in
(1021 mb)
ENE 4.6 mph
(ENE 7 kph)
- 10SM
17:35
Partly Cloudy
73°F / 23°C 52°F / 11°C 47% 30.15 in
(1021 mb)
NE 6.9 mph
(NE 11 kph)
- 10SM
17:15
Mostly Cloudy
73°F / 23°C 50°F / 10°C 44% 30.15 in
(1021 mb)
NE 6.9 mph
(NE 11 kph)
- 10SM
16:55
Mostly Cloudy
75°F / 24°C 48°F / 9°C 39% 30.15 in
(1021 mb)
NNE 5.8 mph
(NNE 9 kph)
- 10SM
16:35
Partly Cloudy
79°F / 26°C 50°F / 10°C 37% 30.15 in
(1021 mb)
NE 8.1 mph
(NE 13 kph)
- 10SM
16:15
Partly Cloudy
79°F / 26°C 48°F / 9°C 34% 30.15 in
(1021 mb)
N 6.9 mph
(N 11 kph)
- 10SM
15:55
Partly Cloudy
79°F / 26°C 50°F / 10°C 37% 30.15 in
(1021 mb)
NW 6.9 mph
(NW 11 kph)
- 10SM
15:35
Mostly Cloudy
79°F / 26°C 50°F / 10°C 37% 30.15 in
(1021 mb)
NNE 9.2 mph
(NNE 15 kph)
- 10SM
15:15
Mostly Cloudy
81°F / 27°C 50°F / 10°C 34% 30.18 in
(1022 mb)
Calm - 10SM
14:55
Mostly Cloudy
79°F / 26°C 50°F / 10°C 37% 30.18 in
(1022 mb)
N 5.8 mph
(N 9 kph)
- 10SM
14:35
Mostly Cloudy
77°F / 25°C 50°F / 10°C 39% 30.18 in
(1022 mb)
N 5.8 mph
(N 9 kph)
- 10SM
14:15
Mostly Cloudy
79°F / 26°C 50°F / 10°C 37% 30.18 in
(1022 mb)
NW 9.2 mph
(NW 15 kph)
- 10SM
13:55
Mostly Cloudy
75°F / 24°C 52°F / 11°C 44% 30.18 in
(1022 mb)
N 6.9 mph
(N 11 kph)
- 10SM
13:35
Partly Cloudy
77°F / 25°C 50°F / 10°C 39% 30.18 in
(1022 mb)
N 5.8 mph
(N 9 kph)
- 10SM
13:15
Mostly Cloudy
75°F / 24°C 50°F / 10°C 41% 30.21 in
(1023 mb)
N 5.8 mph
(N 9 kph)
- 10SM
12:55
Mostly Cloudy
77°F / 25°C 50°F / 10°C 39% 30.21 in
(1023 mb)
NW 6.9 mph
(NW 11 kph)
- 10SM
12:35
Mostly Cloudy
75°F / 24°C 50°F / 10°C 41% 30.21 in
(1023 mb)
N 6.9 mph
(N 11 kph)
- 10SM
12:15
Partly Cloudy
77°F / 25°C 48°F / 9°C 36% 30.18 in
(1022 mb)
NE 6.9 mph
(NE 11 kph)
- 10SM
11:55
Partly Cloudy
77°F / 25°C 50°F / 10°C 39% 30.21 in
(1023 mb)
NNE 5.8 mph
(NNE 9 kph)
- 10SM
11:35
Mostly Cloudy
73°F / 23°C 52°F / 11°C 47% 30.21 in
(1023 mb)
NNW 8.1 mph
(NNW 13 kph)
- 10SM
11:15
Mostly Cloudy
75°F / 24°C 50°F / 10°C 41% 30.21 in
(1023 mb)
NE 9.2 mph
(NE 15 kph)
- 10SM
10:55
Mostly Cloudy
73°F / 23°C 54°F / 12°C 50% 30.21 in
(1023 mb)
N 5.8 mph
(N 9 kph)
- 10SM
10:35
Overcast
72°F / 22°C 52°F / 11°C 50% 30.21 in
(1023 mb)
Calm - 10SM
10:15
Mostly Cloudy
75°F / 24°C 54°F / 12°C 47% 30.21 in
(1023 mb)
ENE 8.1 mph
(ENE 13 kph)
- 10SM
09:55
Partly Cloudy
72°F / 22°C 52°F / 11°C 50% 30.24 in
(1024 mb)
N 4.6 mph
(N 7 kph)
- 10SM
09:35
Partly Cloudy
72°F / 22°C 52°F / 11°C 50% 30.21 in
(1023 mb)
ENE 8.1 mph
(ENE 13 kph)
- 10SM
09:15
Clear
72°F / 22°C 54°F / 12°C 53% 30.21 in
(1023 mb)
NE 4.6 mph
(NE 7 kph)
- 10SM
08:55
Clear
70°F / 21°C 54°F / 12°C 57% 30.21 in
(1023 mb)
NE 8.1 mph
(NE 13 kph)
- 10SM
08:35
Clear
68°F / 20°C 54°F / 12°C 60% 30.21 in
(1023 mb)
NE 5.8 mph
(NE 9 kph)
- 7SM
08:15
Clear
68°F / 20°C 54°F / 12°C 60% 30.24 in
(1024 mb)
NE 5.8 mph
(NE 9 kph)
- 10SM
07:55
Clear
66°F / 19°C 55°F / 13°C 68% 30.24 in
(1024 mb)
NE 5.8 mph
(NE 9 kph)
- 10SM
07:35
Clear
66°F / 19°C 55°F / 13°C 68% 30.24 in
(1024 mb)
NE 4.6 mph
(NE 7 kph)
- 10SM
07:15
Clear
64°F / 18°C 55°F / 13°C 73% 30.21 in
(1023 mb)
Calm - 10SM
06:55
Clear
64°F / 18°C 57°F / 14°C 78% 30.21 in
(1023 mb)
NE 3.5 mph
(NE 6 kph)
- 10SM
06:35
Clear
63°F / 17°C 57°F / 14°C 83% 30.21 in
(1023 mb)
Calm - 10SM
06:15
Clear
63°F / 17°C 57°F / 14°C 83% 30.21 in
(1023 mb)
Calm - 10SM
05:55
Clear
61°F / 16°C 57°F / 14°C 88% 30.21 in
(1023 mb)
Calm - 10SM
05:35
Clear
59°F / 15°C 57°F / 14°C 94% 30.18 in
(1022 mb)
Calm - 10SM
05:15
Clear
59°F / 15°C 55°F / 13°C 88% 30.18 in
(1022 mb)
Calm - 10SM
04:55
Clear
59°F / 15°C 55°F / 13°C 88% 30.18 in
(1022 mb)
Calm - 10SM
04:35
Clear
57°F / 14°C 55°F / 13°C 94% 30.18 in
(1022 mb)
Calm - 10SM
04:15
Clear
59°F / 15°C 55°F / 13°C 88% 30.18 in
(1022 mb)
Calm - 10SM
03:55
Clear
59°F / 15°C 55°F / 13°C 88% 30.18 in
(1022 mb)
Calm - 10SM
03:35
Partly Cloudy
61°F / 16°C 55°F / 13°C 83% 30.18 in
(1022 mb)
Calm - 10SM
03:15
Mostly Cloudy
61°F / 16°C 57°F / 14°C 88% 30.15 in
(1021 mb)
Calm - 10SM
02:55
Partly Cloudy
61°F / 16°C 57°F / 14°C 88% 30.15 in
(1021 mb)
NNE 4.6 mph
(NNE 7 kph)
- 10SM
02:35
Clear
63°F / 17°C 57°F / 14°C 83% 30.15 in
(1021 mb)
NE 4.6 mph
(NE 7 kph)
- 10SM
02:15
Clear
63°F / 17°C 57°F / 14°C 83% 30.15 in
(1021 mb)
NNE 3.5 mph
(NNE 6 kph)
- 10SM
01:55
Clear
63°F / 17°C 57°F / 14°C 83% 30.15 in
(1021 mb)
NE 3.5 mph
(NE 6 kph)
- 10SM
01:35
Clear
64°F / 18°C 57°F / 14°C 78% 30.15 in
(1021 mb)
NE 3.5 mph
(NE 6 kph)
- 10SM
01:15
Clear
64°F / 18°C 57°F / 14°C 78% 30.15 in
(1021 mb)
NNE 3.5 mph
(NNE 6 kph)
- 10SM
00:55
Clear
64°F / 18°C 57°F / 14°C 78% 30.15 in
(1021 mb)
NE 4.6 mph
(NE 7 kph)
- 10SM
00:35
Clear
66°F / 19°C 57°F / 14°C 73% 30.12 in
(1020 mb)
NE 8.1 mph
(NE 13 kph)
- 10SM
00:15
Clear
66°F / 19°C 57°F / 14°C 73% 30.12 in
(1020 mb)
NE 5.8 mph
(NE 9 kph)
- 7SM
Time Weather Temperature Dewpoint Humidity Pressure Winds Precip Visibility


Weather for websites

WeatherForYou.com, LLC is not responsible for any damages or problems caused by this service. Current weather conditions are obtained from the closest station including government and personal stations which may have varying degrees of accuracy. Weather forecasts are derived from the NOAA NDFD. Like all things, this site belongs to Jesus Christ... He just trusts me to maintain it. If you have any questions or comments email webmaster@weatherforyou.com

Copyright © 2014, WeatherForYou.com LLC. All rights reserved.